Temp
20 20 20 20 18 16 19 22 24 25 29 29 29 27 24 20 24 23 21 22 22 20 19 19 20 19 19 19 19 19 19 19 18 18 18 18 18 18 18 18 18 18 18 18 18 18 18 18 18
20 20 21 16 17 17 18 22 25 25 28 28 25 26 23 20 20 19 20 20 21 20 19 19 19 19 18 18 18 19 18 18 18 18 18 17 17 17 18 18 18 18 18 18 18 18 18 18 18
19 19 16 16 15 18 20 24 23 25 26 28 25 22 22 19 19 18 20 20 20 20 19 19 19 19 18 18 18 18 18 18 18 18 18 17 17 16 16 18 18 17 17 17 17 17 17 17 17
18 18 15 16 17 19 22 23 25 26 27 27 23 20 20 21 20 19 19 21 21 20 19 18 18 17 18 18 18 18 18 18 18 18 18 17 17 17 17 17 17 17 17 17 17 17 17 17 17
19 14 15 15 17 19 20 23 24 26 25 25 25 20 19 18 19 19 19 20 20 18 18 18 17 17 18 18 18 18 18 18 18 18 18 17 16 16 16 16 16 16 16 16 16 16 17 17 17
15 14 14 14 16 19 21 21 25 26 25 26 21 18 17 18 19 19 18 19 19 18 18 17 16 17 17 18 18 18 18 18 18 18 17 17 17 15 15 16 16 15 15 15 16 16 16 17 17
14 13 13 15 16 18 21 23 24 24 24 25 20 18 17 17 19 19 19 18 18 18 17 16 16 17 17 18 18 18 17 17 17 17 17 16 16 15 15 15 16 16 16 16 16 16 16 16 17
14 14 15 14 16 16 20 22 25 24 24 25 20 17 17 17 19 18 18 18 17 18 17 17 17 18 18 17 17 17 16 16 16 16 16 16 15 15 15 16 16 16 16 16 16 16 16 16 16
15 13 14 14 16 18 20 20 23 24 25 21 18 19 19 19 17 18 17 17 17 17 17 17 17 17 17 17 16 16 16 15 15 16 16 15 15 15 15 15 15 15 15 16 16 16 16 16 16
13 12 14 16 16 17 19 20 19 22 23 18 16 17 18 17 17 17 16 16 17 17 17 17 16 16 16 16 16 16 15 15 15 15 15 15 15 15 15 15 15 15 15 15 16 16 16 16 16
13 13 15 16 17 18 18 19 19 20 20 20 16 16 17 17 17 16 15 16 16 17 16 17 17 16 16 16 16 16 15 15 15 15 15 15 15 15 15 15 15 15 15 15 15 15 15 16 15
13 15 16 16 17 17 17 18 18 19 19 19 16 16 17 17 17 17 16 16 16 16 16 16 16 16 16 16 16 16 15 15 14 14 14 14 14 14 14 14 14 14 14 15 15 15 15 15 15
12 14 15 16 16 16 17 17 18 18 19 19 17 16 16 17 17 17 16 16 16 16 16 16 16 16 16 16 16 15 15 14 14 14 14 14 14 14 14 14 14 14 14 14 14 14 14 14 14
13 13 14 15 15 15 16 16 17 19 19 18 17 16 16 17 17 17 16 15 16 15 15 15 15 15 15 15 15 15 15 14 14 14 13 13 13 13 13 13 13 14 14 14 14 14 14 14 14
12 12 13 13 14 14 16 16 17 18 19 18 17 16 16 17 18 17 15 15 16 15 15 15 15 15 15 15 15 14 14 14 13 13 13 13 13 13 13 13 13 13 13 13 14 14 13 13 13
12 11 11 14 14 15 14 14 16 17 18 17 17 17 17 17 18 16 16 16 16 15 15 15 15 14 14 14 14 14 14 13 13 13 13 13 13 12 12 12 13 13 13 13 13 13 13 12 12
10 7 10 12 14 14 13 13 16 17 18 16 16 17 17 17 16 16 16 16 15 15 14 14 14 14 14 14 14 14 13 13 13 12 12 12 12 12 12 12 12 12 12 13 12 13 12 12 12
9 9 10 11 14 14 14 14 15 15 17 17 15 16 17 17 16 16 16 16 16 15 15 14 14 14 14 13 13 13 13 13 12 12 12 12 12 12 12 12 12 12 12 12 12 12 12 12 12
10 10 9 12 15 14 13 13 15 16 16 16 16 16 17 17 16 16 16 16 15 15 15 14 14 14 14 13 13 13 13 12 12 12 12 12 12 12 11 11 11 12 11 11 11 12 12 12 12
10 9 9 11 13 13 12 13 14 15 16 16 17 16 15 15 15 15 15 15 15 15 15 14 14 14 14 14 14 13 13 12 12 12 12 12 11 11 11 11 11 11 11 11 11 11 11 11 11
11 11 11 11 13 13 13 12 13 15 18 16 17 17 17 16 16 14 14 14 15 15 14 14 14 14 14 14 13 13 13 12 12 11 11 11 11 11 11 11 11 11 11 11 10 10 10 10 11
10 12 11 11 11 11 13 12 14 15 18 16 17 17 16 15 15 14 14 13 14 15 15 14 14 14 14 14 14 13 13 12 12 12 11 11 11 11 11 11 11 11 11 10 10 10 10 10 10
10 11 9 11 11 12 12 12 16 16 16 17 17 16 16 15 14 14 14 14 14 15 14 14 14 14 13 13 13 13 12 12 12 12 11 11 11 11 10 11 10 10 10 10 10 10 10 9 9
11 11 12 12 12 12 13 13 13 15 17 16 17 16 16 15 14 14 14 14 14 14 14 14 14 13 13 13 13 12 12 12 12 12 11 11 11 11 11 10 10 10 10 10 9 9 9 9 9
11 11 12 13 11 11 14 14 15 17 18 17 17 16 16 15 14 13 13 13 13 13 14 14 13 13 13 13 12 12 12 12 12 12 11 11 11 11 11 10 10 10 10 9 9 9 9 9 9
12 12 12 12 12 12 14 13 17 16 17 19 18 16 16 15 14 14 13 13 13 13 13 13 13 13 12 12 12 12 12 12 12 11 11 11 11 11 10 10 10 10 9 9 9 8 8 8 8
15 12 14 13 13 12 12 16 16 15 16 16 16 15 15 14 14 12 12 12 12 12 13 13 13 13 12 12 12 12 12 12 11 11 11 11 11 10 10 10 10 9 9 9 9 8 9 8 8
15 14 13 11 13 14 13 15 13 15 15 16 15 14 14 12 11 11 11 12 12 13 13 13 13 13 12 12 12 12 12 11 11 11 11 11 10 10 10 10 9 9 9 9 9 9 8 8 8
14 13 13 12 11 13 14 15 16 15 13 16 15 15 13 12 11 10 9 12 13 13 13 12 12 12 12 12 12 12 12 11 11 11 10 10 10 10 10 9 9 9 9 9 9 8 8 8 8
14 15 14 13 12 11 12 14 13 14 14 13 13 12 11 11 10 9 9 10 11 12 12 12 12 12 12 12 12 11 11 11 11 10 10 10 10 10 9 9 9 9 9 8 8 8 8 8 7
Height
809 807 807 808 832 836 834 815 790 789 777 762 759 769 782 792 793 813 800 801 805 810 814 817 819 821 823 825 827 828 829 830 831 832 832 832 832 832 832 832 832 832 832 831 831 831 831 830 830
809 808 807 815 837 842 831 800 793 783 770 761 766 772 781 800 792 797 800 803 806 810 814 818 819 821 823 825 826 827 829 830 831 831 831 832 832 832 832 832 832 832 832 831 831 831 831 830 830
810 810 816 824 832 829 820 790 790 775 769 763 773 777 784 798 794 797 800 803 806 810 815 818 820 821 823 825 826 827 829 830 830 831 831 831 832 832 832 832 832 832 832 832 831 831 831 830 829
811 812 815 824 821 806 797 787 779 775 766 761 769 791 790 792 793 796 800 801 805 810 815 818 820 822 823 824 825 827 828 829 830 831 831 831 831 831 831 831 831 832 832 831 831 831 831 830 830
811 818 830 825 814 802 793 782 775 778 773 768 764 792 796 796 796 798 800 802 805 811 815 819 821 822 823 824 825 826 828 829 829 830 830 830 830 830 831 830 831 831 831 831 830 830 829 829 829
818 819 833 831 818 802 791 781 778 776 771 768 777 791 799 797 796 799 801 803 807 811 816 819 821 822 824 825 826 826 828 828 829 830 830 830 830 830 830 830 830 830 830 830 830 830 829 829 829
820 826 828 820 816 807 794 773 779 781 773 769 771 794 798 797 798 800 802 804 808 812 816 818 820 822 823 825 826 827 827 828 829 830 830 830 830 830 830 830 829 829 829 829 829 829 830 829 829
818 821 819 817 815 811 789 780 775 776 776 758 760 787 795 791 796 800 803 806 809 812 817 818 820 822 824 825 827 828 828 829 829 830 831 831 830 830 831 830 829 829 829 829 829 829 829 829 829
813 822 819 815 811 804 785 791 773 768 763 765 769 767 768 781 794 799 803 807 809 814 817 819 820 822 824 825 827 829 829 829 830 830 831 831 830 830 831 831 830 830 830 830 830 830 830 829 829
817 819 810 804 802 801 789 790 788 780 771 775 776 772 774 780 790 796 800 804 808 812 816 819 820 821 824 825 827 829 829 829 829 830 830 831 831 831 831 831 831 830 830 830 830 829 829 830 829
812 809 801 800 799 796 793 789 785 786 779 766 775 779 782 781 789 795 799 802 807 811 815 818 819 821 823 825 827 828 829 829 829 829 830 830 831 832 831 831 831 831 830 830 830 829 830 829 829
813 801 799 800 798 797 796 789 787 784 777 771 757 765 776 782 785 791 798 802 806 811 813 816 819 820 822 825 827 828 829 829 830 830 829 830 831 831 831 831 831 831 830 830 829 829 830 829 829
807 798 800 799 798 795 794 787 786 779 769 767 767 765 771 781 787 792 799 803 807 810 812 815 818 818 820 824 826 827 828 829 830 830 829 830 831 831 831 831 831 831 831 830 830 830 829 830 829
801 802 801 798 797 795 795 786 782 773 766 767 767 766 772 776 782 790 797 802 805 810 812 813 817 817 819 822 825 826 827 828 829 830 830 830 831 832 831 831 832 831 831 831 831 830 829 830 830
803 806 801 797 795 795 792 786 779 770 769 771 766 768 772 775 781 787 794 800 803 809 811 813 817 817 818 821 824 825 826 828 829 830 830 829 831 832 832 832 833 831 831 831 831 831 830 830 830
804 805 808 789 790 787 795 790 774 768 769 771 770 767 770 775 779 786 792 798 803 807 810 813 816 817 818 821 823 824 826 828 828 830 830 830 831 832 832 833 833 832 832 831 831 831 831 830 829
810 823 805 797 787 786 791 791 766 767 768 771 769 768 769 774 780 785 790 795 801 805 809 812 815 817 818 821 823 825 826 828 829 829 830 830 832 833 833 834 833 832 832 832 832 831 831 830 830
810 811 800 793 782 782 786 787 771 769 770 766 769 768 769 772 776 782 789 794 799 804 808 810 814 816 818 821 823 824 826 828 829 830 830 830 832 833 833 834 834 832 832 832 832 831 831 830 830
800 802 802 791 781 784 784 785 770 766 769 765 763 764 768 771 776 781 788 794 798 802 806 808 812 815 816 819 821 825 824 827 827 830 830 830 832 833 833 833 834 833 832 832 831 831 830 830 829
800 803 799 793 786 785 784 777 763 765 765 759 760 761 767 771 777 782 787 791 795 799 804 807 811 813 815 817 820 823 825 825 826 829 830 830 832 833 833 833 833 833 832 832 831 831 830 830 830
788 788 788 788 779 778 781 774 767 759 754 754 753 753 758 762 770 778 785 789 793 796 800 805 809 811 814 816 819 821 824 824 825 828 829 829 831 832 833 833 832 832 832 832 832 831 831 830 830
786 776 781 779 782 774 770 774 756 754 746 753 752 753 758 765 771 777 783 788 791 794 798 804 807 810 811 815 817 820 822 822 824 826 827 829 831 831 832 831 831 831 831 831 831 831 831 829 829
774 773 775 765 770 771 767 775 742 746 750 749 746 749 755 761 766 772 778 783 789 792 795 801 805 808 810 814 816 819 821 822 824 825 826 829 829 829 830 830 830 830 829 830 830 830 830 829 829
768 766 752 755 757 758 753 758 751 745 736 745 743 745 750 757 764 769 776 782 787 791 794 799 803 806 809 812 815 817 819 821 822 824 826 828 827 828 829 828 828 828 828 828 829 829 829 828 828
771 769 761 755 768 770 745 751 732 720 726 733 737 742 746 752 760 766 772 778 784 787 791 796 800 804 808 811 813 816 818 819 820 821 825 826 826 826 827 827 827 827 826 827 828 828 827 827 826
763 761 764 757 762 760 739 751 725 723 719 717 723 733 741 749 755 761 767 774 780 783 788 792 797 802 806 809 812 814 816 817 819 821 823 824 825 826 826 825 825 825 825 826 826 826 825 825 824
748 763 752 755 750 752 754 730 723 720 722 724 729 734 741 746 752 758 765 770 775 780 785 790 795 800 804 807 810 812 814 815 817 819 822 823 823 824 824 824 824 824 824 825 824 823 822 821 821
747 751 761 765 757 747 749 737 736 727 728 724 733 736 739 746 752 758 763 768 773 779 785 790 795 798 802 806 809 810 812 815 816 819 821 822 822 823 823 822 822 822 823 823 822 820 819 818 817
752 757 758 764 768 758 750 737 725 726 728 719 726 730 737 744 751 757 763 768 773 779 784 789 794 798 801 805 807 809 812 814 816 818 820 820 821 821 821 821 820 820 821 820 819 817 815 814 812
749 748 751 759 765 763 761 738 727 724 725 727 730 738 742 745 753 759 764 769 774 779 784 789 793 796 800 803 805 808 811 813 815 817 818 819 819 820 820 819 819 819 818 817 816 814 813 811 809
Wind_Speed
9 8 10 3 2 3 4 8 5 8 4 1 2 5 7 5 2 5 9 24 26 26 23 20 19 18 15 13 12 12 10 10 9 8 7 7 6 7 7 5 5 5 4 4 4 4 4 4 4
8 8 2 2 3 3 5 6 9 7 4 3 8 4 7 3 3 8 11 25 26 26 22 20 19 17 16 15 14 12 10 8 7 6 7 7 7 7 7 6 6 5 5 5 4 4 4 4 4
9 8 2 4 4 7 5 6 10 13 8 3 5 7 4 4 4 3 24 28 28 25 21 20 20 19 17 15 13 11 9 7 6 5 5 5 5 6 5 3 3 3 3 3 4 4 4 3 3
5 6 3 3 9 6 6 7 5 2 4 3 6 9 4 1 5 16 28 29 27 25 23 21 19 17 16 14 13 10 8 6 5 3 3 3 3 4 4 3 2 2 2 2 2 3 3 3 3
1 2 3 4 7 6 6 12 8 7 4 4 4 6 4 4 22 29 28 28 28 24 22 19 17 16 15 13 11 9 6 5 4 3 3 4 4 5 4 4 4 4 3 3 3 3 3 3 3
2 2 2 6 8 7 9 11 4 6 4 4 7 6 4 17 26 25 24 24 25 25 21 18 16 15 14 11 9 7 6 4 5 5 5 6 6 6 5 4 4 5 5 4 4 4 4 4 4
4 2 4 5 6 6 9 17 4 6 5 6 12 6 5 8 27 24 21 24 24 22 21 19 18 15 12 9 7 8 8 8 8 7 8 9 10 8 7 6 5 5 5 5 6 6 5 5 6
2 2 3 5 3 6 8 9 3 8 9 2 7 9 8 11 31 21 28 27 23 19 18 17 14 12 11 11 10 10 10 11 12 12 11 8 7 6 9 7 7 7 8 8 8 7 6 6 6
3 3 5 6 5 3 22 8 12 9 6 5 7 6 12 35 29 29 29 27 24 19 16 16 15 13 11 12 13 11 11 11 10 11 8 6 6 5 9 11 11 13 11 12 12 10 9 8 7
5 4 8 5 6 5 19 5 13 8 10 5 6 12 31 35 27 25 22 19 25 23 20 17 17 13 11 12 12 11 9 8 7 8 8 6 6 7 5 8 9 9 11 9 10 7 8 7 6
4 11 12 9 9 14 18 15 7 7 9 6 14 16 19 26 23 20 19 25 24 22 20 18 17 15 13 12 12 11 9 6 5 7 8 7 6 7 10 8 7 6 6 7 6 9 7 6 6
12 14 11 8 14 18 16 17 13 6 11 12 24 25 19 18 18 22 21 26 26 24 22 20 18 17 14 12 12 10 8 6 5 7 7 6 7 7 6 7 6 6 7 5 4 4 5 5 4
13 16 12 13 13 14 13 19 16 15 16 3 13 21 23 17 18 21 24 25 27 24 22 21 19 18 17 15 12 12 11 8 5 5 8 6 7 7 7 6 4 5 5 7 7 7 5 3 4
5 6 8 12 14 13 13 18 6 11 11 11 18 19 18 19 22 22 25 27 28 25 22 21 19 19 16 16 13 11 9 6 4 6 7 7 6 6 4 3 3 4 4 5 5 5 5 3 3
3 8 6 6 9 8 6 18 10 11 9 8 16 16 16 16 23 22 25 26 30 25 23 21 19 18 16 15 13 11 10 7 5 6 6 6 5 5 4 3 3 5 4 3 4 3 3 3 7
3 3 4 10 7 7 7 13 12 8 7 9 9 15 15 14 21 24 31 30 28 26 24 22 19 18 16 15 12 11 9 7 7 4 4 5 5 4 3 2 4 5 4 4 4 3 5 5 7
5 3 6 4 8 6 5 6 17 8 8 9 10 12 14 14 15 25 32 31 29 28 25 23 20 19 17 15 12 11 9 7 6 4 4 4 4 4 3 1 3 4 4 4 3 4 5 5 4
4 4 6 9 5 9 7 12 22 16 13 13 10 12 13 14 15 25 32 32 29 27 25 23 21 19 17 15 12 10 9 7 5 3 3 3 4 4 3 2 3 3 4 5 4 3 3 4 5
2 5 8 3 4 3 5 9 20 16 16 11 14 13 12 14 12 26 31 33 31 28 26 24 23 19 18 17 14 11 10 8 5 3 3 3 3 3 3 2 2 3 4 5 6 4 3 3 7
12 13 15 10 12 8 4 14 19 17 18 10 13 14 13 9 14 19 26 32 33 32 27 24 22 20 17 15 12 8 12 7 7 3 3 3 2 2 1 1 2 3 3 3 4 5 3 3 6
15 17 13 13 7 11 4 12 14 18 22 6 12 16 19 20 20 16 21 25 32 32 29 25 22 19 17 15 14 13 10 8 7 5 4 3 3 1 2 1 1 2 2 3 4 4 4 4 2
17 15 20 20 11 6 16 5 15 17 13 7 15 15 14 14 13 13 17 22 31 31 27 24 22 21 18 16 14 14 9 8 6 6 4 2 2 2 3 3 2 2 3 3 3 4 4 3 3
11 11 17 18 17 4 17 3 14 12 14 16 18 17 17 16 16 16 18 24 27 29 27 25 22 20 18 15 13 12 9 7 8 6 3 3 3 3 4 4 4 4 4 5 5 6 6 5 5
7 9 5 5 3 4 12 10 4 11 19 13 14 18 19 17 16 15 20 23 26 28 27 25 24 21 18 16 14 11 10 9 8 5 4 4 4 4 5 4 5 6 6 7 8 9 8 8 9
8 6 2 1 1 4 9 10 10 18 14 14 17 19 19 18 16 14 15 20 24 30 29 27 25 22 19 17 14 12 10 8 6 5 6 5 4 6 7 6 6 7 7 8 9 11 11 11 13
8 4 1 3 2 3 3 6 11 4 11 18 20 19 18 17 16 16 16 21 25 30 31 29 26 23 20 17 14 12 10 8 7 6 7 6 5 4 3 4 6 8 9 10 11 13 13 13 14
2 1 3 2 1 2 2 2 3 6 6 11 12 14 16 16 15 15 15 21 24 28 30 28 25 22 20 17 14 12 9 9 8 6 5 4 3 3 4 5 6 6 8 9 11 12 14 14 16
2 2 4 4 4 2 4 4 3 6 5 13 11 12 13 10 11 11 11 21 25 28 25 23 23 21 19 16 14 11 9 8 6 5 5 3 2 3 4 5 6 7 8 9 11 13 14 17 18
2 2 3 2 1 2 3 5 2 6 7 20 15 14 15 14 12 10 9 20 24 23 22 21 20 18 19 15 14 11 10 9 7 5 4 3 2 2 2 4 5 6 7 8 10 12 13 15 17
2 3 4 2 4 1 2 5 3 5 7 7 13 10 11 12 11 10 13 20 22 22 21 21 19 19 16 14 13 11 10 9 7 6 5 2 1 1 1 3 4 6 7 9 11 13 14 16 18
Wind_Direction
325 336 330 326 76 80 218 243 271 302 293 286 55 82 110 48 112 163 105 153 142 148 148 147 148 146 144 139 138 135 133 124 116 105 90 78 75 65 61 63 60 56 51 47 41 36 32 28 25
333 351 336 75 132 187 244 231 232 239 269 123 77 123 50 75 75 133 101 134 143 146 147 150 151 145 137 136 137 132 129 125 117 103 93 82 75 82 68 68 65 62 54 49 50 48 47 41 33
344 327 86 160 193 201 221 238 224 252 223 134 102 49 78 111 98 85 128 138 137 142 148 150 146 140 145 140 137 134 130 126 117 106 97 86 81 77 71 67 58 46 42 42 41 38 30 25 17
329 359 342 212 230 252 230 272 223 240 262 76 122 75 60 321 115 137 139 144 142 142 149 147 145 144 141 143 138 136 137 135 122 113 95 79 62 68 61 61 49 33 23 10 7 351 349 344 341
40 69 279 252 239 274 263 262 275 272 269 164 119 141 73 39 128 138 138 145 144 144 148 153 149 144 143 143 143 143 140 131 120 99 84 77 66 67 66 65 60 51 43 35 16 357 0 338 325
9 116 272 255 269 278 273 254 306 229 232 198 71 97 131 149 140 139 133 144 149 148 153 146 144 143 145 147 146 141 134 114 98 88 79 71 65 68 64 65 68 64 57 44 31 23 24 26 20
138 102 225 270 279 285 254 278 205 265 218 224 138 103 135 165 153 144 144 150 149 151 155 153 148 149 150 148 139 122 107 97 87 81 80 81 69 68 35 45 51 52 45 39 36 36 37 41 38
133 170 232 228 220 290 272 287 312 249 239 298 143 162 169 179 160 136 137 146 145 146 154 151 147 148 145 132 117 106 99 94 88 85 78 82 83 69 35 39 52 50 48 40 35 32 34 39 44
342 250 236 237 222 268 291 317 313 285 206 67 350 151 156 156 151 137 133 135 133 145 148 148 145 137 132 125 114 106 97 90 88 92 86 76 61 61 56 56 63 63 57 52 49 50 39 28 22
200 213 235 247 268 285 273 322 331 313 293 67 51 63 136 143 146 145 146 142 142 150 153 153 146 146 132 123 116 105 98 88 88 105 96 81 78 80 60 65 56 58 53 54 36 58 35 9 33
219 241 248 278 269 265 278 300 296 318 286 205 154 142 148 144 149 149 146 152 157 160 159 161 160 151 145 132 122 124 120 112 83 102 108 92 83 83 77 73 64 61 64 65 55 62 52 38 32
254 254 248 275 273 279 283 296 304 251 256 311 153 152 152 158 156 157 157 163 163 164 163 162 157 152 148 139 139 137 135 122 90 86 113 99 93 88 86 76 60 64 56 62 49 42 59 51 61
248 255 274 281 284 289 303 293 272 287 287 190 143 147 159 160 155 157 164 170 164 164 164 161 160 151 146 142 134 134 127 120 110 95 97 99 98 94 85 85 65 66 67 55 48 58 57 62 79
282 290 280 267 271 296 280 292 261 269 321 155 157 157 163 164 161 153 163 163 168 167 164 160 163 152 151 151 147 142 135 128 106 97 106 96 104 90 104 86 61 61 75 57 55 57 35 65 9
258 281 293 251 261 269 320 284 252 265 271 188 165 157 162 169 163 165 159 163 170 170 163 161 160 156 155 154 157 147 135 136 99 92 113 104 107 102 80 66 54 61 64 73 63 73 70 8 351
246 181 215 236 230 236 121 266 277 295 247 186 180 156 162 175 167 158 161 169 174 170 168 163 162 157 151 151 150 143 142 142 123 121 106 113 114 112 109 60 65 61 53 69 59 66 56 34 31
230 209 228 305 219 235 173 276 276 289 235 207 177 170 166 165 150 154 166 171 175 173 168 166 163 158 153 152 153 145 146 143 143 148 125 116 131 129 124 83 74 66 53 53 48 61 44 49 39
181 208 231 221 219 212 223 247 276 280 283 204 179 172 175 165 162 158 164 171 173 172 170 166 163 161 157 155 154 145 152 147 153 161 142 132 122 155 135 102 82 68 51 45 36 40 52 25 342
239 243 258 341 246 234 223 250 253 269 284 212 182 171 170 162 148 155 162 168 170 171 171 168 166 167 161 160 154 165 154 160 151 183 158 143 135 155 160 123 64 55 52 35 23 34 33 26 357
248 262 268 280 260 252 251 256 253 268 260 198 189 170 157 139 150 154 159 165 170 171 173 171 171 170 167 162 169 180 167 165 176 181 179 147 175 162 153 150 67 45 44 25 18 25 33 26 12
229 238 244 246 276 238 230 268 264 257 241 195 191 171 167 163 163 162 163 164 170 172 174 175 176 171 168 168 173 162 172 151 171 191 188 168 219 209 228 222 320 357 359 359 3 8 13 20 11
248 232 243 242 233 235 172 259 211 230 210 190 190 172 165 158 154 157 161 165 173 176 175 178 178 176 174 183 182 183 177 164 172 189 172 166 249 259 259 260 272 286 309 313 320 326 331 332 332
253 246 235 230 217 234 177 274 220 207 207 205 189 168 166 166 161 164 171 177 180 180 176 180 181 180 182 183 182 178 172 165 163 166 169 220 238 272 280 275 273 275 287 294 295 292 292 297 296
241 307 280 185 134 230 198 188 244 185 202 197 181 169 172 169 170 166 170 172 185 183 180 182 183 184 187 186 185 185 180 174 168 166 199 221 231 254 278 301 299 293 286 286 289 290 292 297 290
232 289 336 160 197 225 201 204 236 189 184 185 169 175 176 171 168 165 166 175 176 182 183 183 185 184 188 189 189 189 187 187 185 180 220 228 226 239 263 278 302 310 303 292 288 290 294 295 291
190 189 312 330 159 244 135 214 222 181 218 185 170 168 167 169 171 175 176 174 177 180 183 183 186 188 190 192 191 191 193 196 197 207 222 232 242 250 267 280 290 298 297 292 287 290 297 299 294
350 79 244 282 296 63 256 272 303 22 195 173 169 152 167 164 168 168 167 169 169 175 183 186 187 189 192 194 192 192 197 200 203 202 224 236 250 282 290 302 306 303 302 297 292 294 299 298 296
172 352 28 2 343 270 284 273 218 164 201 165 162 165 163 152 141 148 153 159 168 179 182 185 188 189 190 189 191 192 188 196 184 197 224 243 274 291 295 311 317 317 306 298 296 296 301 295 298
191 101 145 118 264 336 304 252 168 231 206 167 173 170 159 152 144 140 133 153 166 172 175 178 181 177 175 181 180 179 187 190 179 194 199 191 233 278 310 318 318 312 307 306 301 301 302 299 300
289 209 139 124 330 208 242 283 331 278 160 147 135 132 127 125 125 125 128 140 152 159 164 167 169 167 172 175 176 172 176 169 174 161 162 199 186 109 6 340 328 314 311 308 307 308 309 307 308